This is the latest recevied weather packets stored in our database for station/object K7DC. If no packets are shown the sender has not sent any weather packets the latest 10 day(s).
| Time | Temp. | Humidity | Pressure | Rain* | Wind** | Luminosity | Snow |
|---|---|---|---|---|---|---|---|
| 1777506583 | 28.89° C | 10% | 1013 hPa | 0 mm | - | 231 W/m² | - |
| 1777506278 | 28.89° C | 10% | 1013 hPa | 0 mm | - | 195 W/m² | - |
| 1777505975 | 29.44° C | 10% | 1013 hPa | 0 mm | - | 199 W/m² | - |
| 1777505670 | 30° C | 10% | 1012.8 hPa | 0 mm | - | 183 W/m² | - |
| 1777505368 | 30° C | 10% | 1012.8 hPa | 0 mm | - | 212 W/m² | - |
| 1777505064 | 30.56° C | 9% | 1012.8 hPa | 0 mm | - | 217 W/m² | - |
| 1777504761 | 30.56° C | 9% | 1012.9 hPa | 0 mm | - | 307 W/m² | - |
| 1777504458 | 30.56° C | 9% | 1013 hPa | 0 mm | - | 244 W/m² | - |
| 1777504154 | 30° C | 9% | 1012.8 hPa | 0 mm | - | 309 W/m² | - |
| 1777503849 | 30.56° C | 9% | 1013 hPa | 0 mm | - | 306 W/m² | - |
| 1777503546 | 30° C | 9% | 1012.8 hPa | 0 mm | - | 310 W/m² | - |
| 1777503242 | 30° C | 10% | 1012.9 hPa | 0 mm | - | 241 W/m² | - |
| 1777502939 | 30° C | 9% | 1012.8 hPa | 0 mm | - | 245 W/m² | - |
| 1777502637 | 29.44° C | 10% | 1012.7 hPa | 0 mm | - | 375 W/m² | - |
| 1777502334 | 29.44° C | 10% | 1012.9 hPa | 0 mm | - | 433 W/m² | - |
| 1777502030 | 30° C | 10% | 1013.1 hPa | 0 mm | - | 285 W/m² | - |
| 1777501727 | 30.56° C | 10% | 1013.2 hPa | 0 mm | - | 265 W/m² | - |
| 1777501425 | 30.56° C | 9% | 1013.7 hPa | 0 mm | - | 317 W/m² | - |
| 1777501122 | 31.11° C | 9% | 1013.5 hPa | 0 mm | - | 483 W/m² | - |
| 1777500820 | 31.11° C | 9% | 1013.4 hPa | 0 mm | - | 351 W/m² | - |
| 1777500517 | 31.11° C | 9% | 1013.4 hPa | 0 mm | - | 377 W/m² | - |
| 1777500213 | 30.56° C | 10% | 1013.8 hPa | 0 mm | - | 435 W/m² | - |
| 1777499910 | 30° C | 11% | 1013.8 hPa | 0 mm | - | 406 W/m² | - |
| 1777499606 | 30.56° C | 11% | 1013.9 hPa | 0 mm | - | 393 W/m² | - |
| 1777499304 | 31.67° C | 10% | 1013.8 hPa | 0 mm | - | 364 W/m² | - |
* Rain latest hour (hover to see other rain measurements)
** Current wind speed in m/s (hover to see current wind gust speed)